GW4049 Weather Reports


Display with metric or nautical units.
time (UTC)temp
F
wind
direction
speed
MPH
gust
MPH
rain 1hr
in
rain 24hr
in
rain mn
in
humidity
%
barometer
mb
20260903184029 70 13 2.0 4.0 0.00 0.00 0.00 33 1030.2
20260903183528 69 101 3.0 4.0 0.00 0.00 0.00 33 1030.3
20260903183024 69 198 7.0 8.0 0.00 0.00 0.00 35 1030.6
20260903182522 68 264 1.0 3.0 0.00 0.00 0.00 34 1030.7
20260903182019 70 353 3.0 3.0 0.00 0.00 0.00 35 1030.6
20260903181517 69 342 1.0 9.0 0.00 0.00 0.00 36 1030.6
20260903181017 69 336 3.0 6.0 0.00 0.00 0.00 34 1030.3
20260903180513 69 238 5.0 7.0 0.00 0.00 0.00 30 1030.7
20260903180012 69 251 2.0 4.0 0.00 0.00 0.00 31 1030.7
20260903175511 69 200 7.0 9.0 0.00 0.00 0.00 32 1030.4
20260903175010 69 74 3.0 7.0 0.00 0.00 0.00 32 1031.0
20260903174505 70 340 4.0 4.0 0.00 0.00 0.00 31 1031.0
20260903174000 69 32 3.0 4.0 0.00 0.00 0.00 32 1030.8
20260903173455 68 236 0.0 2.0 0.00 0.00 0.00 30 1030.8
20260903172950 68 10 3.0 4.0 0.00 0.00 0.00 30 1030.7
20260903172446 67 236 2.0 3.0 0.00 0.00 0.00 30 1031.0
20260903171941 69 209 3.0 3.0 0.00 0.00 0.00 29 1030.8
20260903171436 68 206 2.0 7.0 0.00 0.00 0.00 31 1031.1
20260903170936 67 263 1.0 4.0 0.00 0.00 0.00 32 1030.8
20260903170431 67 323 7.0 9.0 0.00 0.00 0.00 32 1031.1
20260903165930 66 302 3.0 4.0 0.00 0.00 0.00 32 1031.0
20260903165424 66 323 4.0 9.0 0.00 0.00 0.00 32 1030.7
20260903164918 67 354 3.0 13.0 0.00 0.00 0.00 32 1031.0
20260903164414 66 344 7.0 9.0 0.00 0.00 0.00 31 1030.8
20260903163913 68 296 0.0 2.0 0.00 0.00 0.00 34 1031.1
20260903163409 68 253 1.0 2.0 0.00 0.00 0.00 30 1031.1
20260903162905 66 208 0.0 4.0 0.00 0.00 0.00 33 1030.8
20260903162402 66 239 4.0 11.0 0.00 0.00 0.00 35 1030.7
20260903161857 66 177 2.0 6.0 0.00 0.00 0.00 35 1030.8
20260903161352 66 325 3.0 7.0 0.00 0.00 0.00 35 1030.7
20260903160848 66 254 0.0 2.0 0.00 0.00 0.00 33 1030.8
20260903160347 67 223 4.0 4.0 0.00 0.00 0.00 33 1030.8
20260903155845 65 261 3.0 7.0 0.00 0.00 0.00 40 1030.7
20260903155341 64 257 4.0 6.0 0.00 0.00 0.00 37 1030.8
20260903154837 64 251 2.0 3.0 0.00 0.00 0.00 37 1030.8
20260903154333 63 232 4.0 7.0 0.00 0.00 0.00 38 1030.7
20260903153833 63 229 4.0 7.0 0.00 0.00 0.00 39 1030.6
20260903153329 63 231 5.0 7.0 0.00 0.00 0.00 39 1030.7
20260903152825 64 208 3.0 6.0 0.00 0.00 0.00 39 1030.7
20260903152320 63 263 2.0 2.0 0.00 0.00 0.00 39 1030.8
20260903151815 62 237 1.0 4.0 0.00 0.00 0.00 44 1030.7
20260903151311 63 137 6.0 7.0 0.00 0.00 0.00 41 1030.8
20260903150812 62 249 2.0 6.0 0.00 0.00 0.00 44 1030.8
20260903150311 61 292 5.0 8.0 0.00 0.00 0.00 41 1031.0
20260903145806 62 246 1.0 7.0 0.00 0.00 0.00 42 1031.0
20260903145305 62 209 3.0 3.0 0.00 0.00 0.00 43 1030.8
20260903144800 63 257 0.0 2.0 0.00 0.00 0.00 43 1031.0
20260903144256 63 257 0.0 2.0 0.00 0.00 0.00 43 1031.0
20260903143752 61 142 2.0 3.0 0.00 0.00 0.00 43 1030.8
20260903143248 62 203 3.0 3.0 0.00 0.00 0.00 46 1030.8
20260903142743 61 218 1.0 2.0 0.00 0.00 0.00 42 1030.8
20260903142239 61 223 1.0 2.0 0.00 0.00 0.00 43 1031.0
20260903141735 59 235 1.0 2.0 0.00 0.00 0.00 50 1031.1
20260903141230 59 238 1.0 1.0 0.00 0.00 0.00 52 1031.1
20260903140725 59 244 0.0 0.0 0.00 0.00 0.00 53 1030.7
20260903140220 58 237 1.0 1.0 0.00 0.00 0.00 54 1031.0
20260903135716 56 235 2.0 2.0 0.00 0.00 0.00 51 1030.8
20260903135212 55 214 2.0 2.0 0.00 0.00 0.00 59 1030.6
20260903134710 55 226 1.0 2.0 0.00 0.00 0.00 60 1031.0
20260903134206 54 232 1.0 2.0 0.00 0.00 0.00 59 1030.7
20260903133704 53 220 2.0 2.0 0.00 0.00 0.00 61 1030.4
20260903133200 53 224 1.0 2.0 0.00 0.00 0.00 61 1030.7
20260903132654 53 230 1.0 2.0 0.00 0.00 0.00 60 1030.3
20260903132149 53 203 3.0 3.0 0.00 0.00 0.00 60 1030.3
20260903131644 52 218 2.0 2.0 0.00 0.00 0.00 59 1030.4
20260903131142 53 217 2.0 3.0 0.00 0.00 0.00 58 1030.4
20260903130638 52 202 4.0 4.0 0.00 0.00 0.00 57 1030.3
20260903130137 51 209 2.0 3.0 0.00 0.00 0.00 59 1030.3
20260903125636 52 224 2.0 2.0 0.00 0.00 0.00 58 1030.4
20260903125131 53 192 2.0 3.0 0.00 0.00 0.00 54 1030.2
20260903124625 52 221 2.0 7.0 0.00 0.00 0.00 53 1030.2
20260903124120 53 206 3.0 3.0 0.00 0.00 0.00 54 1030.0
20260903123619 54 227 2.0 2.0 0.00 0.00 0.00 55 1029.9
20260903123118 52 209 7.0 8.0 0.00 0.00 0.00 54 1030.0
20260903122613 52 208 3.0 3.0 0.00 0.00 0.00 54 1029.6
20260903122113 51 223 3.0 4.0 0.00 0.00 0.00 56 1029.9
20260903121607 50 202 3.0 4.0 0.00 0.00 0.00 56 1029.8
20260903121103 50 220 2.0 3.0 0.00 0.00 0.00 59 1029.9
20260903120601 51 181 3.0 3.0 0.00 0.00 0.00 56 1029.5
20260903120056 51 199 4.0 4.0 0.00 0.00 0.00 55 1029.8
20260903115554 50 194 4.0 4.0 0.00 0.00 0.00 59 1029.9
20260903115049 51 204 3.0 3.0 0.00 0.00 0.00 59 1029.6
20260903114544 51 219 3.0 3.0 0.00 0.00 0.00 58 1029.5
20260903114040 52 223 2.0 3.0 0.00 0.00 0.00 54 1029.9
20260903113535 50 201 3.0 4.0 0.00 0.00 0.00 56 1029.4
20260903113031 49 207 3.0 4.0 0.00 0.00 0.00 61 1029.6
20260903094241 52 247 1.0 2.0 0.00 0.00 0.00 53 1029.6
20260903093737 52 247 1.0 2.0 0.00 0.00 0.00 53 1029.6
20260903093232 52 218 2.0 3.0 0.00 0.00 0.00 54 1029.5
20260903092731 51 226 2.0 3.0 0.00 0.00 0.00 55 1029.8
20260903092227 51 208 2.0 3.0 0.00 0.00 0.00 55 1029.6
20260903091725 52 209 3.0 3.0 0.00 0.00 0.00 55 1029.8
20260903091220 51 213 3.0 4.0 0.00 0.00 0.00 56 1029.8
20260903090715 51 210 3.0 3.0 0.00 0.00 0.00 56 1029.8
20260903090214 53 197 3.0 4.0 0.00 0.00 0.00 53 1029.9
20260903085713 53 201 3.0 3.0 0.00 0.00 0.00 51 1030.0
20260903085209 52 209 2.0 3.0 0.00 0.00 0.00 55 1029.9
20260903084706 53 206 3.0 4.0 0.00 0.00 0.00 53 1029.8
20260903084201 55 200 2.0 3.0 0.00 0.00 0.00 51 1029.9
20260903083657 55 199 3.0 4.0 0.00 0.00 0.00 49 1029.9
20260903083157 53 231 3.0 4.0 0.00 0.00 0.00 50 1030.0
20260903082651 53 218 2.0 4.0 0.00 0.00 0.00 52 1029.9
20260903082147 52 223 3.0 4.0 0.00 0.00 0.00 54 1030.0
20260903081641 52 201 4.0 4.0 0.00 0.00 0.00 56 1029.8
20260903081138 52 206 3.0 3.0 0.00 0.00 0.00 57 1029.8
20260903080634 53 222 2.0 3.0 0.00 0.00 0.00 57 1030.0
20260903080132 53 191 3.0 3.0 0.00 0.00 0.00 54 1029.9
20260903075630 54 222 2.0 4.0 0.00 0.00 0.00 55 1029.8
20260903075125 53 252 3.0 4.0 0.00 0.00 0.00 51 1029.8
20260903074620 51 208 3.0 4.0 0.00 0.00 0.00 64 1029.9
20260903074120 53 208 3.0 3.0 0.00 0.00 0.00 61 1029.8
20260903073615 51 205 3.0 4.0 0.00 0.00 0.00 61 1029.9
20260903073111 50 210 2.0 3.0 0.00 0.00 0.00 63 1030.2
20260903072606 50 221 2.0 2.0 0.00 0.00 0.00 69 1030.2
20260903072102 51 211 3.0 3.0 0.00 0.00 0.00 69 1029.9
20260903071559 51 211 3.0 3.0 0.00 0.00 0.00 67 1029.9
20260903071054 52 207 3.0 3.0 0.00 0.00 0.00 66 1030.2
20260903070553 52 227 4.0 4.0 0.00 0.00 0.00 65 1030.3
20260903070049 53 203 3.0 3.0 0.00 0.00 0.00 67 1030.4
20260903065549 53 211 3.0 3.0 0.00 0.00 0.00 68 1030.2
20260903065048 53 211 3.0 3.0 0.00 0.00 0.00 70 1030.4
20260903064543 51 218 3.0 3.0 0.00 0.00 0.00 70 1030.7
20260903064038 51 207 3.0 3.0 0.00 0.00 0.00 71 1030.6
20260903063533 51 203 3.0 3.0 0.00 0.00 0.00 70 1030.2
20260903063029 51 206 3.0 3.0 0.00 0.00 0.00 70 1030.3
20260903062524 52 207 3.0 3.0 0.00 0.00 0.00 71 1030.7
20260903062020 53 205 3.0 3.0 0.00 0.00 0.00 71 1030.4
20260903061514 52 210 3.0 3.0 0.00 0.00 0.00 70 1030.3
20260903061003 52 216 2.0 2.0 0.00 0.00 0.00 70 1030.3
20260903060457 53 222 2.0 3.0 0.00 0.00 0.00 69 1030.3
20260903055957 53 208 2.0 3.0 0.00 0.01 0.01 68 1030.2
20260903055455 53 219 2.0 2.0 0.00 0.01 0.01 70 1030.2
20260903054954 53 223 2.0 2.0 0.00 0.01 0.01 68 1029.9
20260903054449 53 237 1.0 2.0 0.00 0.01 0.01 70 1030.2
20260903053945 53 228 1.0 2.0 0.00 0.01 0.01 69 1029.9
20260903053444 54 221 2.0 2.0 0.00 0.01 0.01 70 1030.3
20260903052941 54 214 2.0 3.0 0.00 0.01 0.01 66 1030.6
20260903052437 55 222 3.0 3.0 0.00 0.01 0.01 62 1030.4
20260903051932 55 214 3.0 6.0 0.00 0.01 0.01 65 1030.3
20260903051427 55 202 4.0 4.0 0.00 0.01 0.01 71 1030.4
20260903050923 55 210 3.0 4.0 0.00 0.01 0.01 70 1030.3
20260903050421 57 256 3.0 4.0 0.00 0.01 0.01 61 1030.3
20260903045916 57 158 3.0 6.0 0.00 0.01 0.01 58 1030.7
20260903045412 56 220 2.0 6.0 0.00 0.01 0.01 60 1030.6
20260903044909 56 220 2.0 3.0 0.00 0.01 0.01 62 1030.3
20260903044409 56 224 2.0 2.0 0.00 0.01 0.01 62 1030.3
20260903043906 57 230 2.0 2.0 0.00 0.01 0.01 61 1030.4
20260903043401 58 238 2.0 3.0 0.00 0.01 0.01 58 1030.6
20260903042859 59 234 2.0 4.0 0.00 0.01 0.01 57 1030.6
20260903042355 59 186 6.0 10.0 0.00 0.01 0.01 52 1030.6
20260903041851 56 214 2.0 3.0 0.00 0.01 0.01 67 1030.7
20260903041347 56 224 2.0 2.0 0.00 0.01 0.01 65 1031.2
20260903040843 57 238 1.0 3.0 0.00 0.01 0.01 65 1031.4
20260903040341 56 223 2.0 2.0 0.00 0.01 0.01 64 1031.4
20260903035838 56 216 2.0 3.0 0.00 0.01 0.01 64 1030.8
20260903035338 56 258 0.0 1.0 0.00 0.01 0.01 63 1031.2
20260903034833 57 235 2.0 2.0 0.00 0.01 0.01 62 1030.8
20260903034328 57 252 0.0 1.0 0.00 0.01 0.01 61 1030.8
20260903033823 57 226 1.0 2.0 0.00 0.01 0.01 61 1031.1
20260903033318 57 213 2.0 3.0 0.00 0.01 0.01 60 1031.1
20260903032818 57 228 2.0 3.0 0.00 0.01 0.01 60 1031.1
20260903032314 56 242 2.0 3.0 0.00 0.01 0.01 63 1031.0
20260903031809 56 238 1.0 2.0 0.00 0.01 0.01 64 1030.6
20260903031308 55 222 2.0 2.0 0.00 0.01 0.01 64 1030.4
20260903030805 55 221 2.0 3.0 0.00 0.01 0.01 64 1030.3
20260903030301 54 217 3.0 3.0 0.00 0.01 0.01 66 1030.6
20260903025756 54 230 2.0 3.0 0.00 0.01 0.01 65 1030.3
20260903025252 53 230 2.0 3.0 0.00 0.01 0.01 69 1030.3
20260903024752 54 208 3.0 3.0 0.00 0.01 0.01 65 1030.3
20260903024251 55 236 1.0 2.0 0.00 0.01 0.01 65 1030.7
20260903023747 55 224 2.0 3.0 0.00 0.01 0.01 69 1030.6
20260903023242 55 219 3.0 3.0 0.00 0.01 0.01 65 1030.7
20260903022737 55 227 2.0 3.0 0.00 0.01 0.01 66 1030.6
20260903022236 56 222 2.0 3.0 0.00 0.01 0.01 71 1030.6
20260903021736 56 217 2.0 3.0 0.00 0.01 0.01 67 1030.4
20260903021231 56 238 2.0 3.0 0.00 0.01 0.01 67 1030.7
20260903020725 57 220 2.0 3.0 0.00 0.01 0.01 67 1030.6
20260903020220 58 228 2.0 3.0 0.00 0.01 0.01 66 1030.8
20260903015715 59 230 4.0 8.0 0.00 0.01 0.01 60 1030.6
20260903015210 59 225 3.0 4.0 0.00 0.01 0.01 54 1030.6
20260903014706 59 228 3.0 6.0 0.00 0.01 0.01 56 1030.6
20260903014205 57 232 3.0 6.0 0.00 0.01 0.01 61 1030.4
20260903013700 57 224 2.0 3.0 0.00 0.01 0.01 64 1030.4
20260903013159 56 214 3.0 3.0 0.00 0.01 0.01 64 1030.3
20260903012658 56 236 2.0 3.0 0.00 0.01 0.01 71 1030.0
20260903012153 56 236 1.0 2.0 0.00 0.01 0.01 70 1029.9
20260903011652 55 250 0.0 1.0 0.00 0.01 0.01 68 1029.9
20260903011146 55 222 2.0 3.0 0.00 0.01 0.01 68 1030.0
20260903010642 55 208 3.0 3.0 0.00 0.01 0.01 71 1029.9
20260903010141 55 212 3.0 3.0 0.00 0.01 0.01 74 1030.2
20260903005640 56 224 2.0 2.0 0.00 0.01 0.01 74 1030.2
20260903005136 56 229 2.0 3.0 0.00 0.01 0.01 74 1030.3
20260903004631 56 218 2.0 3.0 0.00 0.01 0.01 72 1030.2
20260903004126 56 234 2.0 3.0 0.00 0.01 0.01 68 1030.3
20260903003621 56 230 2.0 2.0 0.00 0.01 0.01 74 1030.0
20260903003116 56 228 1.0 2.0 0.00 0.01 0.01 71 1030.0
20260903002612 56 268 2.0 3.0 0.00 0.01 0.01 66 1030.0
20260903002106 57 234 1.0 4.0 0.00 0.01 0.01 67 1029.9
20260903001601 55 266 2.0 4.0 0.00 0.01 0.01 67 1029.9
20260903001100 56 236 3.0 3.0 0.00 0.01 0.01 76 1030.0
20260903000556 55 219 2.0 3.0 0.00 0.01 0.01 80 1030.0
20260903000049 55 248 1.0 2.0 0.00 0.01 0.01 80 1029.9
20260902235543 55 254 4.0 6.0 0.07 0.01 0.01 76 1029.9
20260902235038 57 245 2.0 3.0 0.07 0.01 0.01 79 1030.3
20260902234538 61 266 4.0 6.0 0.00 0.00 0.00 62 1030.3
20260902234036 62 271 2.0 2.0 0.00 0.00 0.00 50 1030.0
20260902233531 63 47 2.0 6.0 0.00 0.00 0.00 47 1029.9
20260902233026 64 299 4.0 10.0 0.00 0.00 0.00 46 1030.0
20260902232525 65 294 1.0 3.0 0.00 0.00 0.00 44 1029.9
20260902232014 66 267 1.0 2.0 0.00 0.00 0.00 43 1030.0
20260902231509 67 322 1.0 2.0 0.00 0.00 0.00 41 1030.0
20260902231003 69 258 1.0 1.0 0.00 0.00 0.00 39 1030.3
20260902230503 68 221 1.0 2.0 0.00 0.00 0.00 39 1030.2
20260902225956 66 251 1.0 1.0 0.00 0.00 0.00 41 1030.3
20260902225451 66 262 0.0 0.0 0.00 0.00 0.00 41 1030.6
20260902224951 66 268 0.0 2.0 0.00 0.00 0.00 41 1030.6
20260902224445 66 263 2.0 4.0 0.00 0.00 0.00 43 1030.4
20260902223942 66 18 1.0 3.0 0.00 0.00 0.00 43 1030.4
20260902223437 66 295 2.0 4.0 0.00 0.00 0.00 44 1030.6
20260902222936 66 348 3.0 3.0 0.00 0.00 0.00 42 1030.4
20260902222434 66 287 0.0 2.0 0.00 0.00 0.00 42 1030.3
20260902221929 66 268 0.0 1.0 0.00 0.00 0.00 43 1030.3
20260902221427 66 253 0.0 0.0 0.00 0.00 0.00 44 1030.3
20260902220923 66 242 2.0 4.0 0.00 0.00 0.00 42 1030.2
20260902220417 66 261 0.0 2.0 0.00 0.00 0.00 42 1030.2
20260902215912 66 264 0.0 3.0 0.00 0.00 0.00 43 1030.2
20260902215408 66 247 0.0 1.0 0.00 0.00 0.00 44 1030.0
20260902214904 66 359 3.0 3.0 0.00 0.00 0.00 46 1030.0
20260902214402 66 29 3.0 4.0 0.00 0.00 0.00 43 1030.3
20260902213857 67 254 2.0 4.0 0.00 0.00 0.00 42 1030.6
20260902213354 66 238 2.0 3.0 0.00 0.00 0.00 43 1030.3
20260902212852 66 190 4.0 4.0 0.00 0.00 0.00 43 1030.3
20260902212349 66 286 1.0 3.0 0.00 0.00 0.00 41 1030.2
20260902211845 66 261 0.0 4.0 0.00 0.00 0.00 42 1030.3
20260902211340 66 272 0.0 1.0 0.00 0.00 0.00 43 1030.6
20260902210835 66 256 0.0 0.0 0.00 0.00 0.00 45 1030.4
20260902210334 66 245 0.0 1.0 0.00 0.00 0.00 44 1030.6
20260902205833 65 238 0.0 0.0 0.00 0.00 0.00 46 1030.6
20260902205327 65 251 0.0 3.0 0.00 0.00 0.00 47 1030.6
20260902204823 66 67 4.0 8.0 0.00 0.00 0.00 43 1030.6
20260902204318 66 234 0.0 4.0 0.00 0.00 0.00 52 1031.0
20260902203814 66 87 2.0 3.0 0.00 0.00 0.00 40 1031.0
20260902203309 66 260 2.0 4.0 0.00 0.00 0.00 41 1031.0
20260902202808 66 232 2.0 3.0 0.00 0.00 0.00 40 1031.2
20260902202306 66 319 1.0 3.0 0.00 0.00 0.00 41 1031.2
20260902201801 67 220 2.0 4.0 0.00 0.00 0.00 40 1031.2
20260902201300 66 197 2.0 3.0 0.00 0.00 0.00 40 1031.2
20260902200756 66 130 1.0 2.0 0.00 0.00 0.00 41 1031.4
20260902200251 66 283 2.0 7.0 0.00 0.00 0.00 41 1031.0
20260902195746 68 260 1.0 3.0 0.00 0.00 0.00 40 1031.2
20260902195245 68 233 2.0 6.0 0.00 0.00 0.00 37 1031.4
20260902194740 68 162 3.0 3.0 0.00 0.00 0.00 38 1031.5
20260902194235 68 175 4.0 6.0 0.00 0.00 0.00 38 1031.4
20260902193731 66 156 5.0 11.0 0.00 0.00 0.00 39 1031.4
20260902193226 66 128 5.0 8.0 0.00 0.00 0.00 41 1031.4
20260902192724 67 154 3.0 4.0 0.00 0.00 0.00 39 1031.6
20260902192218 68 217 2.0 8.0 0.00 0.00 0.00 37 1031.2
20260902191712 67 72 4.0 6.0 0.00 0.00 0.00 40 1031.5
20260902191207 67 262 1.0 3.0 0.00 0.00 0.00 39 1031.5
20260902190702 66 277 0.0 7.0 0.00 0.00 0.00 40 1031.5
20260902190157 66 314 5.0 8.0 0.00 0.00 0.00 40 1031.9
20260902185653 67 18 4.0 9.0 0.00 0.00 0.00 38 1031.8
20260902185149 67 278 3.0 6.0 0.00 0.00 0.00 37 1031.9
20260902184649 69 196 2.0 7.0 0.00 0.00 0.00 38 1032.0